Date,TemperatureHighF,TemperatureAvgF,TemperatureLowF,DewpointHighF,DewpointAvgF,DewpointLowF,HumidityHigh,HumidityAvg,HumidityLow,PressureMaxIn,PressureMinIn,WindSpeedMaxMPH,WindSpeedAvgMPH,GustSpeedMaxMPH,PrecipitationSumIn
2013-1-1,44.5,41.3,36.9,43.0,38.6,33.0,95,90,84,30.25,30.02,8,3,16,0.00
2013-1-2,38.6,35.0,28.2,33.0,30.9,27.0,94,85,76,30.33,30.24,6,2,12,0.00
2013-1-3,48.6,38.6,27.7,35.0,30.0,26.0,95,73,48,30.45,30.32,8,1,21,0.00
2013-1-4,50.5,43.8,38.3,38.0,31.9,26.0,81,64,40,30.50,30.34,6,1,7,0.00
2013-1-5,53.8,44.2,36.4,41.0,38.5,34.0,94,81,60,30.34,30.20,7,2,10,0.00
2013-1-6,56.8,42.7,31.7,37.0,31.8,26.0,96,69,36,30.36,30.27,10,2,15,0.01
2013-1-7,55.0,44.7,32.6,38.0,31.5,25.0,79,61,44,30.32,30.09,7,2,12,0.00
2013-1-8,51.3,47.3,44.3,50.0,43.5,35.0,96,87,66,30.09,29.93,9,2,13,0.64
2013-1-9,56.4,53.7,49.5,55.0,52.7,48.0,97,96,95,30.10,29.90,18,5,27,1.30
2013-1-10,60.0,55.7,48.6,59.0,50.9,45.0,97,84,64,29.97,29.88,16,5,20,0.04
2013-1-11,71.2,60.2,48.4,61.0,51.5,45.0,87,74,49,29.93,29.75,11,5,14,0.00
2013-1-12,73.5,58.1,37.4,69.0,55.4,34.0,96,90,84,29.89,29.59,14,5,23,0.21
2013-1-13,44.3,36.2,29.0,35.0,28.9,22.0,89,75,58,30.26,29.88,11,6,26,0.00
2013-1-14,43.4,34.6,27.2,30.0,25.6,22.0,81,70,55,30.33,30.19,9,2,21,0.00
2013-1-15,35.8,33.1,29.9,33.0,28.7,21.0,94,84,60,30.22,30.13,12,3,20,0.01
2013-1-16,46.4,36.0,28.5,29.0,25.4,23.0,85,67,42,30.29,30.16,5,1,10,0.00
2013-1-17,58.5,44.5,32.8,39.0,32.6,24.0,83,65,40,30.49,30.25,10,2,16,0.00
2013-1-18,60.3,47.9,35.3,39.0,35.1,31.0,88,63,42,30.50,30.25,11,3,14,0.00
2013-1-19,62.5,49.8,38.2,47.0,41.1,34.0,86,73,56,30.27,30.13,8,3,12,0.00
2013-1-20,67.8,55.2,43.6,51.0,46.0,42.0,93,73,47,30.20,30.04,7,2,12,0.00
2013-1-21,59.5,48.9,39.5,47.0,39.5,31.0,91,71,54,30.25,30.09,9,2,19,0.00
2013-1-22,63.1,49.7,37.4,49.0,41.2,31.0,84,73,59,30.30,30.17,6,2,9,0.00
2013-1-23,71.7,60.2,49.9,56.0,52.8,47.0,92,78,57,30.25,30.10,14,4,20,0.00
2013-1-24,72.7,63.0,55.7,63.0,58.6,54.0,96,86,69,30.15,29.99,9,4,16,0.00
2013-1-25,60.9,53.1,47.8,59.0,49.2,43.0,94,86,76,30.15,29.98,8,2,11,0.00
2013-1-26,49.3,48.2,46.9,48.0,46.5,43.0,96,93,79,30.19,30.07,9,2,11,0.01
2013-1-27,74.4,62.9,48.1,64.0,58.3,47.0,97,86,63,30.08,29.90,13,5,17,0.00
2013-1-28,77.7,70.9,65.8,67.0,64.2,61.0,91,80,64,29.98,29.80,13,7,21,0.00
2013-1-29,76.7,65.8,53.0,67.0,60.4,37.0,93,83,55,29.81,29.40,18,7,24,0.45
2013-1-30,52.3,46.2,33.4,42.0,32.6,25.0,82,60,43,30.12,29.65,12,4,21,0.00
2013-1-31,66.0,49.2,33.7,35.0,27.8,23.0,78,48,20,30.29,30.08,11,3,24,0.00
2013-2-1,61.9,47.3,31.3,40.0,32.3,24.0,75,58,39,30.37,30.15,10,4,19,0.00
2013-2-2,66.8,54.7,44.9,49.0,41.7,34.0,84,63,34,30.27,30.13,10,2,14,0.00
2013-2-3,68.5,54.2,37.1,44.0,35.3,30.0,93,54,24,30.29,29.95,5,1,9,0.00
2013-2-4,68.2,59.3,52.5,58.0,49.8,33.0,95,73,41,29.95,29.77,11,4,12,0.02
2013-2-5,68.3,60.4,56.9,62.0,58.2,55.0,97,92,79,29.97,29.84,8,2,11,0.00
2013-2-6,69.1,61.1,56.2,62.0,58.5,55.0,95,91,71,29.99,29.85,12,5,16,0.00
2013-2-7,72.5,61.7,55.0,62.0,56.2,48.0,96,83,52,30.03,29.76,11,4,24,0.01
2013-2-8,62.8,52.9,43.3,48.0,39.1,34.0,84,62,36,30.20,30.04,13,3,19,0.00
2013-2-9,61.1,50.1,45.1,60.0,46.8,39.0,95,88,75,30.11,29.71,14,7,20,0.11
2013-2-10,66.2,58.9,49.9,64.0,42.7,30.0,96,60,27,29.98,29.64,14,3,41,0.66
2013-2-11,52.3,49.5,45.7,43.0,39.1,34.0,86,68,53,30.12,29.95,7,2,17,0.02
2013-2-12,51.7,47.5,44.3,49.0,45.4,41.0,95,92,87,30.01,29.80,10,3,19,0.84
2013-2-13,54.7,44.6,40.2,41.0,38.4,37.0,90,80,54,30.14,29.99,11,2,17,0.00
2013-2-14,66.8,51.6,36.3,45.0,38.4,35.0,94,64,32,30.10,29.98,7,2,11,0.00
2013-2-15,51.2,45.6,36.5,43.0,32.0,24.0,78,60,37,30.35,30.08,12,3,24,0.00
2013-2-16,53.8,42.7,33.2,33.0,29.3,25.0,78,61,38,30.39,30.15,8,2,11,0.00
2013-2-17,68.0,55.4,40.4,47.0,35.3,28.0,72,49,27,30.15,29.89,13,6,22,0.00
2013-2-18,76.8,63.3,56.0,61.0,50.4,39.0,81,65,32,29.89,29.70,20,8,29,0.00
2013-2-19,60.4,55.0,50.4,32.0,27.7,24.0,50,36,25,30.23,30.13,9,3,14,0.00
2013-2-20,50.7,44.5,40.1,40.0,35.4,30.0,87,72,46,30.16,29.76,18,6,21,0.08
2013-2-21,66.4,52.0,43.5,52.0,41.6,35.0,94,70,33,29.89,29.62,17,5,23,0.08
2013-2-22,48.6,41.3,34.6,38.0,30.4,25.0,85,67,47,30.11,29.89,9,3,16,0.00
2013-2-23,56.1,43.2,31.8,36.0,29.9,26.0,81,61,40,30.06,29.91,6,1,11,0.00
2013-2-24,68.6,54.7,39.3,45.0,38.6,31.0,81,57,32,29.92,29.57,16,6,20,0.00
2013-2-25,62.2,51.9,41.3,56.0,39.5,30.0,84,65,32,29.62,29.41,19,9,30,0.01
2013-2-26,56.5,46.4,37.6,40.0,35.2,32.0,81,66,45,29.89,29.62,23,4,24,0.00
2013-2-27,56.1,46.0,35.8,37.0,31.4,26.0,82,59,37,30.19,29.86,9,3,20,0.00
2013-2-28,56.7,45.1,34.7,35.0,30.8,27.0,83,59,37,30.26,30.13,8,3,16,0.00
2013-3-1,53.1,43.2,32.2,36.0,31.8,26.0,84,65,49,30.27,30.17,7,3,19,0.00
2013-3-2,52.1,40.7,31.0,30.0,25.9,21.0,81,58,34,30.41,30.21,10,3,16,0.00
2013-3-3,67.3,53.1,33.5,44.0,32.5,23.0,73,48,30,30.21,29.78,13,6,21,0.00
2013-3-4,76.9,65.6,55.0,58.0,50.9,43.0,80,61,42,29.78,29.57,16,7,24,0.00
2013-3-5,60.5,49.8,41.6,47.0,31.1,25.0,73,50,31,30.34,29.75,17,7,44,0.00
2013-3-6,60.5,47.1,33.2,29.0,23.2,13.0,68,42,20,30.44,30.18,9,2,16,0.00
2013-3-7,69.7,55.8,40.7,37.0,29.2,21.0,56,38,20,30.24,30.08,14,4,17,0.00
2013-3-8,65.5,59.1,51.9,56.0,50.7,38.0,81,74,56,30.17,29.96,11,5,16,0.00
2013-3-9,70.7,65.4,59.7,62.0,59.5,55.0,91,81,74,29.96,29.62,18,9,29,0.09
2013-3-10,63.4,51.0,41.0,61.0,42.4,33.0,93,73,57,30.04,29.66,14,4,22,0.36
2013-3-11,56.2,44.6,34.5,34.0,29.8,24.0,86,59,30,30.10,29.98,7,2,21,0.00
2013-3-12,66.7,53.1,36.5,34.0,29.3,26.0,72,43,24,30.28,30.04,10,2,14,0.00
2013-3-13,67.3,55.6,42.9,39.0,34.6,31.0,76,48,29,30.42,30.28,13,2,13,0.00
2013-3-14,73.8,60.8,47.6,50.0,41.7,32.0,64,50,39,30.33,30.14,12,4,19,0.00
2013-3-15,77.4,66.7,53.7,56.0,49.8,45.0,85,57,34,30.14,29.85,13,6,19,0.00
2013-3-16,79.7,68.3,57.5,61.0,56.1,52.0,89,67,46,29.85,29.66,13,7,20,0.00
2013-3-17,76.1,67.5,58.0,63.0,58.7,52.0,89,74,58,29.74,29.60,13,4,16,0.00
2013-3-18,70.0,62.9,51.7,64.0,52.1,40.0,91,70,49,29.96,29.60,13,4,15,0.00
2013-3-19,67.8,57.6,45.0,44.0,39.7,36.0,80,54,37,30.08,29.91,14,4,19,0.00
2013-3-20,66.5,57.1,46.4,40.0,34.1,29.0,68,44,26,30.26,29.99,7,1,24,0.00
2013-3-21,68.0,58.8,49.4,56.0,41.9,31.0,76,54,45,29.99,29.55,19,7,21,0.00
2013-3-22,64.3,54.3,46.8,60.0,50.3,45.0,94,87,76,29.81,29.55,10,3,23,0.00
2013-3-23,56.7,50.3,46.3,53.0,48.1,45.0,95,92,84,29.86,29.63,9,2,17,0.31
2013-3-24,51.7,45.6,38.9,48.0,34.1,25.0,92,66,47,30.16,29.80,14,6,22,0.05
2013-3-25,53.3,43.3,29.1,30.0,24.8,21.0,78,50,30,30.38,30.16,11,4,24,0.00
2013-3-26,56.8,43.8,30.1,29.0,23.3,18.0,65,46,28,30.49,30.30,8,1,11,0.00
2013-3-27,68.8,54.6,36.6,43.0,32.5,23.0,65,45,27,30.32,30.08,16,5,20,0.00
2013-3-28,69.7,62.1,50.8,57.0,52.2,43.0,83,70,60,30.20,30.06,17,6,17,0.00
2013-3-29,73.9,66.6,59.1,60.0,57.7,55.0,87,74,60,30.15,29.95,14,5,19,0.00
2013-3-30,73.3,65.4,54.5,65.0,60.3,53.0,95,84,71,30.05,29.84,9,3,13,1.50
2013-3-31,73.4,65.8,57.6,63.0,58.7,52.0,94,79,57,29.93,29.77,10,2,28,0.16
2013-4-1,78.6,65.8,51.0,55.0,52.0,47.0,94,64,39,30.02,29.89,6,1,11,0.00
2013-4-2,73.3,64.3,50.3,64.0,56.8,43.0,92,77,64,29.99,29.81,13,5,21,0.10
2013-4-3,52.7,48.0,43.5,48.0,44.5,41.0,94,88,76,30.12,29.89,14,3,21,0.45
2013-4-4,49.6,45.8,41.7,45.0,42.2,40.0,94,87,80,30.17,30.07,7,1,13,0.02
2013-4-5,68.2,55.7,42.6,51.0,45.9,41.0,92,72,47,30.22,30.00,5,2,10,0.00
2013-4-6,73.8,64.8,54.1,58.0,53.8,49.0,84,69,51,29.99,29.81,13,5,19,0.00
2013-4-7,72.8,66.6,60.2,62.0,59.7,56.0,87,79,68,29.88,29.71,14,6,21,0.00
2013-4-8,76.4,70.2,62.0,65.0,62.4,59.0,88,77,64,29.73,29.63,19,6,22,0.00
2013-4-9,82.3,75.2,68.8,68.0,65.2,63.0,85,72,57,29.69,29.59,16,8,26,0.00
2013-4-10,74.1,50.0,41.3,69.0,47.0,37.0,94,89,81,29.91,29.64,12,4,21,0.80
2013-4-11,61.0,47.8,36.9,43.0,38.2,33.0,90,71,49,29.95,29.79,9,2,15,0.02
2013-4-12,76.0,59.4,42.0,52.0,45.2,39.0,95,63,32,29.97,29.84,4,1,9,0.00
2013-4-13,76.9,66.6,53.0,55.0,48.7,44.0,73,54,37,29.98,29.73,12,3,15,0.00
2013-4-14,78.9,68.7,55.1,67.0,59.3,48.0,86,72,59,29.73,29.52,12,4,18,0.00
2013-4-15,83.4,74.0,68.4,71.0,67.3,64.0,91,80,62,29.72,29.58,9,5,17,0.00
2013-4-16,87.9,77.8,70.6,70.0,67.7,65.0,86,72,49,29.85,29.73,12,5,22,0.00
2013-4-17,84.5,77.6,73.7,71.0,69.4,67.0,91,76,58,29.83,29.60,19,9,26,0.00
2013-4-18,74.3,55.8,44.7,70.0,49.3,37.0,93,79,62,30.10,29.52,12,5,23,0.89
2013-4-19,61.5,49.5,36.3,40.0,35.9,33.0,90,62,35,30.24,30.09,9,2,17,0.00
2013-4-20,70.2,57.8,41.0,46.0,38.3,34.0,86,52,27,30.19,29.99,13,4,20,0.00
2013-4-21,71.6,60.1,46.8,51.0,46.1,39.0,86,62,43,30.18,30.03,10,3,18,0.00
2013-4-22,76.2,66.0,52.4,60.0,54.2,45.0,80,66,56,30.07,29.82,10,4,16,0.00
2013-4-23,68.6,56.4,43.9,64.0,52.4,41.0,94,86,72,30.13,29.77,12,4,22,0.00
2013-4-24,61.3,50.6,41.0,43.0,39.8,35.0,90,68,46,30.27,30.12,16,3,19,0.00
2013-4-25,73.0,61.3,48.4,48.0,43.5,39.0,74,54,32,30.30,30.11,12,3,17,0.00
2013-4-26,76.6,66.4,56.4,67.0,58.0,45.0,86,75,58,30.14,29.94,12,3,13,0.00
2013-4-27,72.8,68.2,57.0,66.0,61.7,54.0,92,80,64,30.04,29.93,8,2,12,0.00
2013-4-28,81.4,66.5,52.1,68.0,59.8,51.0,95,80,59,30.01,29.82,6,1,11,0.00
2013-4-29,83.5,72.6,60.4,68.0,62.3,58.0,94,72,50,29.87,29.74,9,2,14,0.00
2013-4-30,82.2,71.0,59.9,66.0,62.3,56.0,92,75,54,29.79,29.69,8,2,11,0.00
2013-5-1,83.4,72.1,62.6,68.0,63.9,61.0,94,77,53,29.90,29.74,7,2,12,0.00
2013-5-2,66.2,53.7,43.5,63.0,49.9,38.0,93,87,79,30.26,29.91,15,6,28,0.08
2013-5-3,65.1,52.2,40.3,40.0,36.7,32.0,87,59,29,30.24,29.98,15,4,24,0.00
2013-5-4,71.4,56.9,41.0,41.0,36.8,32.0,82,51,24,29.99,29.84,11,2,18,0.00
2013-5-5,66.1,55.2,44.4,49.0,44.3,40.0,88,68,50,30.10,29.98,13,2,16,0.00
2013-5-6,76.7,63.2,47.3,58.0,52.5,45.0,94,70,45,30.07,29.93,5,1,11,0.00
2013-5-7,83.5,71.0,55.4,59.0,54.8,51.0,87,59,36,30.03,29.89,6,1,8,0.00
2013-5-8,84.5,73.0,61.2,63.0,58.7,53.0,80,62,44,29.96,29.82,11,3,18,0.00
2013-5-9,72.3,68.5,65.2,69.0,64.8,58.0,96,88,65,29.93,29.77,10,2,19,0.25
2013-5-10,81.6,71.1,64.9,68.0,64.6,59.0,95,81,57,29.98,29.81,5,1,12,0.00
2013-5-11,79.4,69.2,60.3,59.0,54.2,49.0,89,62,36,30.11,29.94,14,2,25,0.00
2013-5-12,77.6,66.5,56.9,54.0,42.8,33.0,72,46,20,30.21,30.09,10,2,16,0.00
2013-5-13,86.1,70.1,52.9,54.0,49.9,44.0,77,51,29,30.20,30.06,9,1,11,0.00
2013-5-14,85.9,74.4,61.4,64.0,57.5,53.0,87,58,33,30.12,29.94,12,3,17,0.00
2013-5-15,77.1,69.5,61.6,69.0,65.8,59.0,95,88,70,30.00,29.77,12,4,21,1.14
2013-5-16,80.5,70.4,61.7,72.0,66.9,61.0,96,89,75,29.82,29.70,11,2,18,1.23
2013-5-17,89.0,79.4,71.3,75.0,72.8,69.0,96,81,62,29.81,29.73,11,2,14,0.00
2013-5-18,90.5,80.4,71.2,77.0,71.8,68.0,90,76,59,29.85,29.71,10,3,16,0.00
2013-5-19,88.8,79.6,70.5,73.0,70.0,68.0,91,74,55,29.79,29.64,12,5,20,0.00
2013-5-20,88.2,79.7,72.6,74.0,71.2,69.0,88,76,60,29.77,29.61,11,4,19,0.00
2013-5-21,85.5,73.0,62.6,75.0,68.3,61.0,96,85,68,29.81,29.59,13,2,30,1.08
2013-5-22,83.0,71.1,59.2,67.0,62.9,58.0,96,77,52,29.89,29.77,5,1,8,0.00
2013-5-23,86.3,77.2,69.1,74.0,70.8,66.0,95,81,63,30.02,29.83,8,2,16,0.00
2013-5-24,85.5,77.3,67.9,76.0,71.5,65.0,94,83,67,30.12,29.94,10,2,16,0.10
2013-5-25,84.8,74.5,68.0,73.0,69.1,66.0,94,84,64,30.10,29.98,9,2,12,0.00
2013-5-26,87.9,78.1,71.4,74.0,71.0,68.0,93,79,59,30.03,29.88,11,3,16,0.00
2013-5-27,87.4,79.0,70.9,72.0,69.7,68.0,91,74,57,29.93,29.75,12,3,18,0.00
2013-5-28,87.2,79.0,71.5,71.0,68.8,67.0,87,72,53,29.84,29.71,12,4,19,0.00
2013-5-29,83.6,77.3,72.8,72.0,70.2,69.0,87,79,66,29.78,29.66,14,5,19,0.00
2013-5-30,87.4,80.6,75.0,76.0,72.7,70.0,86,77,66,29.75,29.64,14,4,21,0.00
2013-5-31,91.3,83.1,76.8,76.0,73.5,72.0,87,74,55,29.78,29.62,12,3,15,0.00
2013-6-1,90.5,80.3,73.2,76.0,72.8,68.0,91,78,60,29.87,29.67,13,3,16,0.00
2013-6-2,83.0,74.5,65.1,71.0,60.7,54.0,91,65,38,29.99,29.88,7,1,15,0.00
2013-6-3,89.0,74.8,60.0,65.0,61.6,57.0,91,66,40,29.93,29.78,6,1,8,0.00
2013-6-4,90.9,79.4,67.9,72.0,68.4,63.0,86,70,50,29.94,29.74,11,3,19,0.00
2013-6-5,91.5,80.6,70.9,73.0,70.4,67.0,89,72,51,29.89,29.67,12,2,18,0.00
2013-6-6,77.6,72.2,67.0,72.0,68.4,65.0,96,87,72,29.87,29.70,8,1,22,0.74
2013-6-7,83.7,72.7,61.6,65.0,60.6,56.0,92,69,40,29.94,29.82,10,1,14,0.00
2013-6-8,88.3,76.1,60.2,65.0,62.3,58.0,94,65,41,29.89,29.74,6,2,12,0.00
2013-6-9,90.0,77.1,68.5,72.0,68.8,65.0,94,77,51,29.89,29.79,8,1,18,0.29
2013-6-10,96.5,83.0,69.5,74.0,69.9,66.0,95,68,41,29.90,29.83,10,2,15,0.00
2013-6-11,94.0,83.2,72.7,76.0,72.6,69.0,94,72,51,29.96,29.85,11,2,13,0.00
2013-6-12,94.3,83.8,75.0,76.0,72.9,71.0,94,72,48,30.00,29.86,9,2,12,0.00
2013-6-13,97.4,85.5,73.6,75.0,72.5,70.0,92,67,42,29.99,29.82,11,2,13,0.00
2013-6-14,97.2,86.5,73.9,77.0,72.9,70.0,87,66,45,29.92,29.80,5,1,8,0.00
2013-6-15,94.9,81.2,72.8,77.0,72.9,67.0,92,77,53,29.94,29.82,15,2,18,0.00
2013-6-16,94.8,84.3,75.0,76.0,72.7,69.0,94,70,45,29.95,29.81,6,2,10,0.00
2013-6-17,92.4,80.7,70.0,76.0,72.9,67.0,93,78,55,29.97,29.79,10,2,20,0.01
2013-6-18,82.2,76.4,71.3,74.0,71.2,69.0,94,84,72,29.93,29.80,7,1,13,0.03
2013-6-19,91.1,80.4,70.1,76.0,72.4,69.0,96,78,56,29.93,29.83,8,2,10,0.01
2013-6-20,95.6,85.0,75.0,75.0,72.0,70.0,91,67,44,29.98,29.87,8,3,15,0.00
2013-6-21,95.8,85.1,75.0,75.0,71.8,69.0,89,66,46,30.01,29.90,8,2,12,0.00
2013-6-22,94.9,84.5,73.9,74.0,71.2,69.0,90,66,46,29.99,29.83,13,3,14,0.00
2013-6-23,95.7,85.1,74.4,75.0,70.7,68.0,86,64,42,29.94,29.82,6,2,15,0.00
2013-6-24,96.1,86.0,74.8,74.0,70.9,66.0,88,63,42,29.97,29.83,10,3,13,0.00
2013-6-25,97.9,87.0,75.4,74.0,70.9,68.0,86,61,39,29.94,29.77,9,3,16,0.00
2013-6-26,99.9,87.3,76.0,74.0,70.9,67.0,86,60,41,29.91,29.78,8,2,16,0.00
2013-6-27,100.6,87.1,77.2,74.0,70.1,66.0,79,59,33,29.95,29.79,7,1,11,0.00
2013-6-28,101.8,87.7,75.7,74.0,69.4,66.0,78,57,36,29.88,29.72,9,2,15,0.00
2013-6-29,97.4,86.2,75.3,71.0,65.0,60.0,78,52,29,29.81,29.71,12,2,18,0.00
2013-6-30,90.7,80.7,72.0,69.0,60.5,55.0,88,53,32,29.86,29.73,12,2,20,0.00
2013-7-1,87.9,77.4,65.9,63.0,59.9,57.0,83,57,36,29.94,29.85,9,2,16,0.00
2013-7-2,89.6,77.3,64.1,62.0,55.9,49.0,79,51,27,30.00,29.93,7,1,16,0.00
2013-7-3,91.3,79.1,62.1,63.0,55.9,50.0,87,48,26,30.00,29.88,7,1,12,0.00
2013-7-4,94.7,79.9,68.0,66.0,62.5,59.0,78,57,30,29.95,29.84,8,2,14,0.00
2013-7-5,95.6,83.0,66.0,68.0,63.1,60.0,86,54,32,29.94,29.80,10,2,12,0.00
2013-7-6,95.6,82.6,71.5,72.0,64.2,60.0,80,56,33,29.89,29.79,7,2,14,0.00
2013-7-7,96.8,85.6,72.9,74.0,68.3,63.0,81,58,36,29.93,29.84,11,3,12,0.00
2013-7-8,98.0,84.9,74.5,75.0,71.6,69.0,89,66,41,30.02,29.92,8,2,11,0.00
2013-7-9,101.4,88.1,75.9,74.0,68.4,63.0,84,55,29,30.06,29.90,8,2,15,0.00
2013-7-10,102.2,90.0,79.3,74.0,69.6,65.0,78,53,31,29.99,29.82,11,2,13,0.00
2013-7-11,101.2,84.9,75.6,74.0,71.3,68.0,88,65,36,29.90,29.81,7,1,20,0.00
2013-7-12,99.2,85.7,72.6,75.0,71.1,67.0,94,65,36,29.91,29.81,8,2,11,0.00
2013-7-13,99.1,86.1,75.5,72.0,65.2,59.0,77,52,34,29.93,29.81,8,3,18,0.00
2013-7-14,74.8,72.8,68.6,71.0,66.8,59.0,94,82,59,29.94,29.82,7,1,11,0.08
2013-7-15,77.4,71.2,68.0,73.0,68.8,67.0,96,92,82,30.04,29.88,7,2,12,0.35
2013-7-16,89.8,76.3,69.8,74.0,71.6,68.0,96,86,56,30.16,30.02,18,2,25,1.34
2013-7-17,89.9,79.5,71.2,76.0,72.2,70.0,96,80,55,30.16,30.07,10,2,14,0.05
2013-7-18,95.5,83.4,72.1,75.0,71.1,67.0,93,69,44,30.11,29.93,7,1,11,0.00
2013-7-19,88.1,79.8,74.2,76.0,72.3,70.0,90,78,62,29.98,29.87,11,2,12,0.00
2013-7-20,94.8,80.3,72.0,77.0,72.8,70.0,95,79,50,29.92,29.79,7,1,13,0.02
2013-7-21,96.5,84.1,72.6,78.0,73.2,71.0,95,72,47,29.87,29.78,8,2,11,0.00
2013-7-22,97.7,86.5,76.3,77.0,74.0,71.0,92,68,45,29.91,29.79,10,2,16,0.00
2013-7-23,98.0,87.3,77.9,78.0,73.1,62.0,88,65,33,29.91,29.74,10,2,11,0.00
2013-7-24,93.9,81.8,73.4,75.0,71.8,68.0,88,73,49,29.96,29.79,9,2,19,0.00
2013-7-25,93.7,82.9,72.0,76.0,72.4,69.0,91,72,53,29.98,29.90,8,2,11,0.00
2013-7-26,96.9,82.6,75.4,76.0,73.5,72.0,93,75,48,29.95,29.77,17,2,20,0.09
2013-7-27,87.2,77.4,70.1,73.0,69.0,67.0,94,76,53,29.94,29.84,9,2,21,0.00
2013-7-28,91.8,80.0,67.4,73.0,69.7,65.0,93,72,50,29.93,29.81,9,2,12,0.00
2013-7-29,95.7,85.5,75.7,77.0,71.8,63.0,92,66,39,29.94,29.85,7,3,16,0.00
2013-7-30,100.2,87.7,77.7,75.0,69.8,64.0,84,57,36,30.02,29.88,14,2,17,0.00
2013-7-31,102.0,88.6,78.8,74.0,69.6,65.0,78,55,36,29.99,29.83,10,1,14,0.00
2013-8-1,100.9,87.5,77.7,73.0,72.1,70.0,83,62,39,29.92,29.81,5,2,15,0.00
2013-8-2,102.5,90.2,77.7,74.0,70.7,66.0,82,55,33,29.88,29.79,9,3,14,0.00
2013-8-3,100.4,88.7,77.8,74.0,71.0,67.0,78,58,34,29.94,29.85,8,2,12,0.01
2013-8-4,100.8,88.8,77.3,75.0,71.7,65.0,87,59,33,30.00,29.85,9,2,12,0.00
2013-8-5,103.2,91.2,80.0,74.0,68.0,63.0,76,49,27,29.94,29.77,6,2,14,0.00
2013-8-6,104.4,90.3,77.6,73.0,69.0,66.0,77,52,31,29.85,29.71,14,2,14,0.00
2013-8-7,106.0,91.2,78.7,75.0,69.5,65.0,80,52,27,29.83,29.69,8,2,13,0.00
2013-8-8,103.4,90.0,78.4,75.0,69.7,65.0,81,54,32,29.82,29.69,7,2,11,0.00
2013-8-9,104.5,90.4,76.4,72.0,63.9,53.0,76,46,19,29.88,29.78,10,2,13,0.00
2013-8-10,101.2,88.6,76.6,73.0,69.4,63.0,74,54,33,29.97,29.86,5,1,13,0.00
2013-8-11,101.5,86.1,75.1,75.0,71.8,68.0,89,65,37,30.00,29.87,7,1,22,0.00
2013-8-12,100.3,87.7,74.9,74.0,71.0,68.0,90,60,37,29.99,29.85,9,2,13,0.00
2013-8-13,96.4,83.1,75.2,79.0,72.8,69.0,93,73,46,29.93,29.81,8,2,18,0.64
2013-8-14,89.0,80.6,74.7,76.0,72.7,68.0,94,78,62,29.95,29.86,10,2,18,0.01
2013-8-15,89.6,78.4,68.7,68.0,63.6,59.0,78,62,43,30.01,29.89,8,2,18,0.00
2013-8-16,88.8,77.4,69.4,66.0,63.2,61.0,80,63,45,30.01,29.89,8,2,18,0.00
2013-8-17,89.5,76.7,62.0,63.0,60.5,58.0,91,60,36,30.03,29.91,11,2,19,0.00
2013-8-18,91.3,79.6,67.3,68.0,62.0,57.0,87,58,33,30.03,29.92,11,2,12,0.00
2013-8-19,96.1,83.2,70.2,68.0,62.4,57.0,82,53,27,30.01,29.86,7,2,12,0.00
2013-8-20,97.3,84.3,71.6,67.0,62.2,59.0,73,50,29,29.98,29.88,6,2,10,0.00
2013-8-21,96.3,84.5,71.8,70.0,66.5,62.0,84,57,36,30.03,29.91,8,1,12,0.00
2013-8-22,100.0,86.5,74.3,73.0,69.4,66.0,82,59,35,30.02,29.85,6,1,15,0.00
2013-8-23,101.0,87.4,74.3,75.0,69.5,65.0,85,58,31,29.96,29.82,6,1,11,0.00
2013-8-24,99.3,87.4,75.9,73.0,69.5,67.0,80,57,37,29.99,29.89,14,2,16,0.00
2013-8-25,96.4,85.9,74.0,71.0,67.9,65.0,82,57,38,30.07,29.97,13,3,15,0.00
2013-8-26,96.4,84.2,73.5,72.0,68.1,62.0,85,61,32,30.10,29.97,13,3,18,0.00
2013-8-27,94.2,82.4,72.7,73.0,69.6,67.0,92,68,42,30.07,29.94,7,1,10,0.00
2013-8-28,98.0,84.7,71.0,72.0,67.9,65.0,87,60,35,30.04,29.91,11,1,11,0.00
2013-8-29,102.6,88.8,74.7,71.0,66.2,62.0,81,50,27,30.00,29.87,5,1,10,0.00
2013-8-30,103.1,89.8,75.3,72.0,65.6,62.0,76,47,28,29.93,29.79,8,1,12,0.00
2013-8-31,104.1,90.0,76.3,74.0,67.5,64.0,86,51,29,29.84,29.71,5,1,10,0.00
2013-9-1,104.3,90.2,77.6,74.0,69.1,64.0,87,53,29,29.82,29.68,7,1,12,0.01
2013-9-2,92.9,81.7,74.8,77.0,73.7,70.0,94,78,49,29.92,29.78,6,0,6,0.42
2013-9-3,99.9,87.2,74.5,73.0,69.4,64.0,86,58,32,29.91,29.79,7,1,8,0.00
2013-9-4,98.6,86.7,74.3,74.0,69.6,66.0,86,59,36,29.98,29.86,8,2,16,0.00
2013-9-5,99.4,86.7,74.0,72.0,66.6,60.0,76,54,30,30.04,29.92,6,2,13,0.00
2013-9-6,99.3,85.9,73.3,73.0,66.6,62.0,80,54,31,30.01,29.87,9,1,14,0.00
2013-9-7,98.7,86.0,74.1,75.0,67.8,61.0,86,58,29,29.97,29.83,6,1,9,0.00
2013-9-8,97.1,83.9,69.2,72.0,66.6,62.0,91,59,34,29.92,29.80,7,1,13,0.00
2013-9-9,97.0,84.0,71.0,72.0,66.9,63.0,89,59,37,29.94,29.84,11,2,13,0.00
2013-9-10,90.9,81.0,70.7,74.0,65.9,58.0,90,63,36,30.04,29.93,8,2,16,0.00
2013-9-11,97.3,81.0,71.7,74.0,69.2,65.0,90,70,40,30.06,29.93,9,1,13,0.03
2013-9-12,95.5,84.3,72.3,73.0,69.8,67.0,89,64,40,30.01,29.85,6,1,12,0.00
2013-9-13,95.3,85.0,76.4,72.0,69.1,66.0,82,61,40,29.89,29.76,7,2,11,0.00
2013-9-14,93.4,82.4,72.8,67.0,62.2,58.0,65,52,37,29.92,29.81,11,4,15,0.00
2013-9-15,95.1,83.5,71.5,69.0,63.4,58.0,62,52,39,29.97,29.88,8,2,12,0.00
2013-9-16,95.9,85.4,73.6,74.0,66.3,62.0,80,55,34,30.02,29.89,7,1,11,0.00
2013-9-17,95.6,85.7,76.7,70.0,67.1,64.0,71,55,37,30.01,29.87,7,1,12,0.00
2013-9-18,96.0,85.5,76.3,73.0,67.2,63.0,76,56,36,29.95,29.81,8,2,12,0.00
2013-9-19,95.0,80.9,74.2,76.0,72.1,68.0,94,76,43,29.93,29.79,9,1,10,0.15
2013-9-20,74.8,72.6,69.0,73.0,70.6,66.0,96,93,86,29.85,29.76,10,2,19,2.39
2013-9-21,83.5,71.5,61.3,67.0,55.8,50.0,92,62,31,29.91,29.80,10,2,19,0.00
2013-9-22,82.3,70.7,59.0,59.0,54.3,50.0,90,59,34,29.89,29.75,9,1,18,0.00
2013-9-23,85.6,72.7,58.6,62.0,57.0,53.0,83,60,37,29.82,29.69,7,1,11,0.00
2013-9-24,93.3,78.3,64.7,69.0,60.3,51.0,84,57,30,29.86,29.76,4,1,11,0.00
2013-9-25,93.8,77.1,58.6,62.0,54.0,48.0,91,49,23,29.84,29.71,11,1,11,0.00
2013-9-26,92.9,80.4,67.5,64.0,58.9,53.0,63,49,33,29.83,29.73,8,2,10,0.00
2013-9-27,87.7,78.6,66.9,74.0,67.4,61.0,80,69,59,29.89,29.80,10,2,12,0.00
2013-9-28,87.5,75.9,66.0,77.0,70.8,65.0,95,84,69,29.96,29.82,8,3,22,0.41
2013-9-29,83.2,71.3,63.5,67.0,61.5,56.0,95,74,40,29.98,29.85,8,2,11,0.00
2013-9-30,86.8,75.7,64.4,70.0,62.3,52.0,89,66,37,29.86,29.75,6,1,6,0.00
2013-10-1,90.1,79.2,71.8,73.0,71.1,68.0,94,78,53,29.89,29.78,7,2,11,0.00
2013-10-2,87.5,78.8,72.9,74.0,71.4,69.0,92,79,61,29.93,29.81,9,2,11,0.00
2013-10-3,89.0,79.7,72.3,75.0,72.0,70.0,93,78,54,29.88,29.77,9,3,13,0.00
2013-10-4,89.1,80.1,74.6,73.0,70.9,69.0,90,74,53,29.86,29.78,7,2,13,0.00
2013-10-5,82.1,66.0,52.2,73.0,60.9,46.0,92,83,67,30.03,29.82,10,2,18,0.08
2013-10-6,72.4,61.2,51.1,52.0,46.4,38.0,94,63,30,30.07,29.98,11,2,16,0.01
2013-10-7,80.4,64.0,46.7,52.0,43.6,36.0,92,54,20,30.11,30.01,5,1,9,0.00
2013-10-8,78.7,66.1,53.0,56.0,51.0,45.0,78,60,38,30.07,29.95,6,1,11,0.00
2013-10-9,80.9,67.6,53.6,60.0,55.5,51.0,91,67,43,30.04,29.94,7,1,9,0.00
2013-10-10,82.1,70.8,59.5,64.0,59.4,56.0,90,69,43,30.02,29.84,7,2,13,0.00
2013-10-11,84.4,75.5,66.0,72.0,68.3,63.0,94,79,65,29.91,29.78,9,2,14,0.00
2013-10-12,86.8,75.3,68.0,76.0,71.1,64.0,93,87,70,30.02,29.84,13,2,17,1.00
2013-10-13,74.5,70.9,68.2,70.0,68.2,67.0,96,91,83,30.15,30.00,7,2,13,0.00
2013-10-14,72.8,70.5,68.2,71.0,69.0,66.0,96,95,92,30.09,29.88,7,2,9,0.26
2013-10-15,75.5,67.5,54.5,72.0,65.7,53.0,96,94,89,29.98,29.86,12,2,14,1.10
2013-10-16,57.6,55.5,53.3,56.0,53.8,52.0,96,94,89,30.04,29.93,9,2,14,0.20
2013-10-17,72.2,58.9,48.2,55.0,50.0,46.0,93,75,45,30.10,29.95,3,0,9,0.00
2013-10-18,71.1,61.5,51.9,58.0,53.2,49.0,91,75,55,30.03,29.86,9,2,18,0.00
2013-10-19,64.5,53.1,43.8,49.0,43.1,40.0,89,71,41,30.17,30.03,10,2,18,0.00
2013-10-20,70.6,56.9,41.3,50.0,45.0,39.0,94,67,42,30.05,29.86,9,2,12,0.00
2013-10-21,72.3,61.0,55.2,65.0,56.3,49.0,92,84,77,30.05,29.89,9,2,20,0.01
2013-10-22,73.5,59.1,43.9,52.0,46.2,41.0,92,66,34,30.12,29.98,6,1,13,0.00
2013-10-23,81.3,64.9,49.1,55.0,51.0,45.0,89,63,36,30.09,30.00,2,0,6,0.00
2013-10-24,77.7,65.5,52.1,57.0,51.4,47.0,83,62,44,30.23,30.02,5,1,10,0.00
2013-10-25,66.5,57.5,50.4,49.0,46.3,41.0,81,67,51,30.37,30.20,14,3,15,0.00
2013-10-26,76.7,62.6,51.5,65.0,55.6,47.0,95,79,66,30.20,29.99,10,2,25,1.00
2013-10-27,69.0,62.4,57.9,61.0,59.0,57.0,96,89,70,30.08,29.97,3,0,5,0.00
2013-10-28,77.0,67.2,57.0,69.0,63.1,56.0,96,87,74,30.07,29.97,7,2,12,0.00
2013-10-29,77.3,72.4,68.6,70.0,68.1,65.0,92,86,78,30.04,29.95,9,3,12,0.00
2013-10-30,71.1,67.7,64.6,69.0,65.7,62.0,96,93,87,29.97,29.72,14,4,22,0.69
2013-10-31,77.0,67.0,51.6,68.0,56.9,43.0,97,74,32,29.84,29.63,15,4,22,0.02
2013-11-1,75.7,61.9,47.4,55.0,50.3,45.0,94,68,42,30.03,29.78,8,1,13,0.00
2013-11-2,66.6,57.1,47.1,47.0,41.7,36.0,84,59,33,30.24,30.03,7,1,15,0.00
2013-11-3,65.5,54.9,40.5,47.0,42.8,37.0,88,65,45,30.18,29.97,8,2,16,0.00
2013-11-4,59.9,57.2,53.3,59.0,53.7,46.0,96,88,68,30.09,29.98,6,2,12,0.83
2013-11-5,69.2,64.7,59.7,68.0,63.7,59.0,97,96,94,30.03,29.91,8,3,16,0.78
2013-11-6,69.7,55.3,42.5,69.0,52.1,40.0,96,89,72,30.32,29.91,8,2,17,0.92
2013-11-7,61.7,49.9,39.7,48.0,42.3,38.0,94,78,45,30.47,30.33,4,0,7,0.00
2013-11-8,66.0,54.4,42.2,49.0,45.4,41.0,95,74,45,30.36,30.10,6,0,9,0.00
2013-11-9,64.4,57.0,51.5,52.0,48.7,47.0,85,75,60,30.20,30.10,7,2,11,0.00
2013-11-10,67.6,57.0,49.6,53.0,48.4,45.0,93,75,47,30.31,30.20,4,0,6,0.00
2013-11-11,73.0,59.5,48.3,56.0,50.6,44.0,91,74,50,30.25,30.13,3,0,6,0.00
2013-11-12,59.4,47.7,32.7,56.0,36.8,24.0,94,68,42,30.65,30.24,21,3,24,0.00
2013-11-13,51.8,39.4,27.1,29.0,25.4,22.0,86,60,36,30.67,30.36,11,1,13,0.00
2013-11-14,59.9,47.7,31.9,46.0,34.8,28.0,85,64,33,30.35,30.00,9,2,16,0.00
2013-11-15,70.2,60.0,52.5,61.0,53.1,45.0,93,78,64,30.00,29.82,6,2,11,0.00
2013-11-16,75.0,69.8,63.3,70.0,65.7,61.0,93,87,74,29.83,29.66,9,3,16,0.00
2013-11-17,84.5,74.6,62.5,72.0,60.5,42.0,90,64,39,29.96,29.65,14,3,17,0.00
2013-11-18,71.0,62.2,54.1,42.0,37.8,31.0,55,42,25,30.13,29.96,11,2,19,0.00
2013-11-19,66.2,58.2,51.8,41.0,35.4,30.0,58,44,26,30.14,30.00,12,4,15,0.00
2013-11-20,64.6,57.0,45.2,53.0,42.5,33.0,74,59,45,30.01,29.88,10,4,13,0.00
2013-11-21,71.0,65.0,46.3,70.0,62.3,45.0,96,91,75,30.13,29.92,11,3,23,0.49
2013-11-22,45.4,38.1,36.2,44.0,36.8,35.0,96,94,93,30.40,30.15,18,5,23,0.27
2013-11-23,42.7,39.1,36.0,41.0,36.2,30.0,95,89,74,30.51,30.39,13,3,19,0.01
2013-11-24,36.7,34.3,32.1,30.0,27.3,24.0,84,76,62,30.56,30.34,14,2,19,0.00
2013-11-25,36.9,35.1,32.8,35.0,33.2,29.0,95,93,82,30.33,30.12,6,1,12,0.36
2013-11-26,50.5,41.3,35.9,38.0,34.1,26.0,94,77,55,30.34,30.09,18,5,26,0.00
2013-11-27,44.9,35.4,27.7,27.0,23.4,20.0,84,63,42,30.45,30.33,9,2,17,0.00
2013-11-28,50.7,38.3,27.0,32.0,27.1,21.0,82,66,42,30.45,30.35,5,1,8,0.00
2013-11-29,57.0,44.5,32.0,42.0,34.7,29.0,89,70,45,30.52,30.34,6,1,11,0.00
2013-11-30,65.0,53.0,41.1,50.0,43.2,34.0,88,70,48,30.35,30.13,7,2,12,0.00
2013-12-1,69.6,59.9,53.3,59.0,55.4,50.0,95,85,68,30.13,29.84,12,2,17,0.00
2013-12-2,69.1,55.2,42.9,55.0,49.9,42.0,96,84,53,29.84,29.62,4,0,7,0.00
2013-12-3,71.6,58.3,45.9,55.0,47.4,42.0,96,71,36,29.61,29.49,6,2,10,0.00
2013-12-4,77.1,64.1,47.4,66.0,57.6,39.0,95,80,65,29.84,29.56,9,2,17,0.00
2013-12-5,46.7,34.8,30.2,38.0,29.5,26.0,93,81,69,30.14,29.83,17,5,29,0.00
2013-12-6,33.0,28.6,24.1,32.0,26.4,21.0,94,91,88,30.49,30.06,13,4,21,0.00
2013-12-7,29.8,25.6,22.1,29.0,23.6,19.0,95,92,88,30.52,30.23,11,2,14,0.00
2013-12-8,35.8,32.7,28.5,34.0,31.3,27.0,95,94,92,30.23,30.05,5,1,6,0.00
2013-12-9,34.9,32.4,28.9,33.0,30.2,24.0,94,91,81,30.41,30.14,8,3,17,0.00
2013-12-10,39.5,29.6,21.7,27.0,23.4,19.0,92,78,60,30.51,30.35,6,2,15,0.00
2013-12-11,48.1,35.3,25.7,36.0,29.6,23.0,92,81,60,30.58,30.33,6,1,11,0.00
2013-12-12,50.0,38.3,25.5,35.0,28.9,24.0,93,71,44,30.60,30.26,10,1,10,0.00
2013-12-13,45.6,42.0,40.0,45.0,38.5,32.0,96,88,67,30.26,29.79,9,3,13,0.00
2013-12-14,46.8,40.7,32.0,46.0,38.0,29.0,97,90,79,30.31,29.78,14,3,20,0.00
2013-12-15,56.3,42.1,28.1,38.0,32.8,26.0,92,72,47,30.35,30.22,4,1,8,0.00
2013-12-16,63.4,49.2,36.2,41.0,36.5,33.0,87,64,40,30.25,30.14,6,2,10,0.00
2013-12-17,68.7,51.2,38.8,44.0,39.2,35.0,85,66,39,30.27,30.19,5,1,6,0.00
2013-12-18,67.5,54.6,41.0,51.0,42.9,37.0,88,67,46,30.24,29.98,11,3,17,0.00
2013-12-19,71.5,63.0,52.6,63.0,57.1,50.0,91,81,69,29.97,29.73,14,6,22,0.00
2013-12-20,70.0,59.5,37.3,65.0,56.1,36.0,95,88,80,29.82,29.69,9,3,18,0.00
2013-12-21,55.1,46.6,36.4,54.0,45.5,35.0,97,96,95,29.76,29.51,10,2,16,0.00
2013-12-22,50.2,37.6,28.7,49.0,33.5,26.0,96,85,72,30.37,29.76,9,4,21,0.00
2013-12-23,46.1,34.4,25.8,33.0,28.2,23.0,93,79,58,30.55,30.36,7,1,11,0.00
2013-12-24,51.8,38.4,25.5,35.0,30.2,24.0,93,74,50,30.54,30.27,10,3,12,0.00
2013-12-25,56.3,44.2,34.5,45.0,36.9,30.0,88,76,63,30.39,30.27,8,2,13,0.00
2013-12-26,54.1,41.5,31.8,41.0,35.9,30.0,93,82,57,30.43,30.31,5,1,10,0.00
2013-12-27,57.6,44.7,34.2,42.0,38.3,32.0,95,80,54,30.44,30.30,3,0,6,0.00
2013-12-28,58.9,47.9,37.7,43.0,38.8,33.0,94,72,52,30.29,29.96,7,2,9,0.00
2013-12-29,53.1,41.6,31.7,46.0,34.1,25.0,85,75,66,30.25,29.93,16,4,23,0.00
2013-12-30,42.3,34.8,29.3,28.0,25.1,22.0,78,68,54,30.40,30.22,10,2,16,0.00
2013-12-31,53.0,39.9,26.8,31.0,26.9,22.0,86,62,39,30.44,30.19,7,2,11,0.00
2014-1-1,65.1,48.3,33.7,52.0,40.1,29.0,89,74,59,30.19,29.87,13,5,20,0.00
2014-1-2,42.0,32.4,25.4,28.0,22.1,19.0,81,67,47,30.46,30.18,17,4,28,0.00